Time,TemperatureF,DewpointF,PressureIn,WindDirection,WindDirectionDegrees,WindSpeedMPH,WindSpeedGustMPH,Humidity,HourlyPrecipIn,Conditions,Clouds,dailyrainin,SoftwareType,DateUTC
2013-05-01 00:01:00,63.4,59.0,30.10,ESE,117,0.0,3.0,86,0.00,,,0.00,weatherlink.com 1.10,2013-05-01 04:01:00,
2013-05-01 00:16:00,63.0,59.0,30.10,ESE,115,1.0,4.0,87,0.00,,,0.00,weatherlink.com 1.10,2013-05-01 04:16:00,
2013-05-01 00:31:00,63.1,60.0,30.11,SE,131,0.0,4.0,88,0.00,,,0.00,weatherlink.com 1.10,2013-05-01 04:31:00,
2013-05-01 00:46:00,62.9,60.0,30.11,SE,136,0.0,4.0,89,0.00,,,0.00,weatherlink.com 1.10,2013-05-01 04:46:00,
2013-05-01 01:01:00,62.6,60.0,30.11,East,96,3.0,6.0,90,0.00,,,0.00,weatherlink.com 1.10,2013-05-01 05:01:00,
2013-05-01 01:16:00,62.6,60.0,30.11,ESE,117,1.0,3.0,90,0.00,,,0.00,weatherlink.com 1.10,2013-05-01 05:16:00,
2013-05-01 01:31:00,62.8,60.0,30.11,SE,146,0.0,6.0,89,0.00,,,0.00,weatherlink.com 1.10,2013-05-01 05:31:00,
2013-05-01 01:46:00,62.6,60.0,30.11,South,184,1.0,3.0,90,0.00,,,0.00,weatherlink.com 1.10,2013-05-01 05:46:00,
2013-05-01 02:01:00,62.6,60.0,30.10,SE,129,0.0,4.0,90,0.00,,,0.00,weatherlink.com 1.10,2013-05-01 06:01:00,
2013-05-01 02:16:00,62.4,60.0,30.10,ESE,105,0.0,3.0,90,0.00,,,0.00,weatherlink.com 1.10,2013-05-01 06:16:00,
2013-05-01 02:31:00,62.2,60.0,30.10,ESE,109,0.0,2.0,91,0.00,,,0.00,weatherlink.com 1.10,2013-05-01 06:31:00,
2013-05-01 02:46:00,61.8,59.0,30.10,ESE,120,0.0,4.0,91,0.00,,,0.00,weatherlink.com 1.10,2013-05-01 06:46:00,
2013-05-01 03:01:00,61.4,59.0,30.09,ESE,110,1.0,4.0,92,0.00,,,0.00,weatherlink.com 1.10,2013-05-01 07:01:00,
2013-05-01 03:17:00,61.2,59.0,30.09,ESE,115,0.0,7.0,93,0.00,,,0.00,weatherlink.com 1.10,2013-05-01 07:17:00,
2013-05-01 03:32:00,61.3,59.0,30.09,ESE,105,0.0,6.0,93,0.00,,,0.00,weatherlink.com 1.10,2013-05-01 07:32:00,
2013-05-01 03:47:00,61.5,60.0,30.09,East,98,0.0,7.0,93,0.00,,,0.00,weatherlink.com 1.10,2013-05-01 07:47:00,
2013-05-01 04:02:00,61.3,59.0,30.09,ESE,117,2.0,6.0,93,0.00,,,0.00,weatherlink.com 1.10,2013-05-01 08:02:00,
2013-05-01 04:17:00,61.1,59.0,30.09,ESE,103,1.0,7.0,93,0.00,,,0.00,weatherlink.com 1.10,2013-05-01 08:17:00,
2013-05-01 04:32:00,60.9,59.0,30.09,ESE,105,0.0,4.0,93,0.00,,,0.00,weatherlink.com 1.10,2013-05-01 08:32:00,
2013-05-01 04:47:00,61.3,59.0,30.09,ESE,117,1.0,11.0,93,0.00,,,0.00,weatherlink.com 1.10,2013-05-01 08:47:00,
2013-05-01 05:02:00,61.5,59.0,30.09,SSE,148,2.0,7.0,92,0.00,,,0.00,weatherlink.com 1.10,2013-05-01 09:02:00,
2013-05-01 05:17:00,61.6,59.0,30.09,NNW,330,0.0,6.0,92,0.00,,,0.00,weatherlink.com 1.10,2013-05-01 09:17:00,
2013-05-01 05:32:00,61.6,59.0,30.09,SE,129,0.0,7.0,92,0.00,,,0.00,weatherlink.com 1.10,2013-05-01 09:32:00,
2013-05-01 05:47:00,61.6,59.0,30.08,West,264,0.0,4.0,92,0.00,,,0.00,weatherlink.com 1.10,2013-05-01 09:47:00,
2013-05-01 06:02:00,61.5,59.0,30.09,ESE,121,0.0,7.0,91,0.00,,,0.00,weatherlink.com 1.10,2013-05-01 10:02:00,
2013-05-01 06:18:00,61.4,59.0,30.09,SE,126,0.0,10.0,91,0.00,,,0.00,weatherlink.com 1.10,2013-05-01 10:18:00,
2013-05-01 06:32:00,61.4,59.0,30.10,SE,138,2.0,5.0,91,0.00,,,0.00,weatherlink.com 1.10,2013-05-01 10:32:00,
2013-05-01 06:47:00,61.2,58.0,30.11,East,84,2.0,8.0,90,0.00,,,0.00,weatherlink.com 1.10,2013-05-01 10:47:00,
2013-05-01 07:02:00,61.1,58.0,30.11,East,87,2.0,7.0,90,0.00,,,0.00,weatherlink.com 1.10,2013-05-01 11:02:00,
2013-05-01 07:17:00,60.9,58.0,30.12,SSW,200,5.0,6.0,90,0.00,,,0.00,weatherlink.com 1.10,2013-05-01 11:17:00,
2013-05-01 07:32:00,60.8,58.0,30.14,East,85,3.0,4.0,89,0.00,,,0.00,weatherlink.com 1.10,2013-05-01 11:32:00,
2013-05-01 07:47:00,60.2,57.0,30.15,SE,125,4.0,10.0,88,0.00,,,0.00,weatherlink.com 1.10,2013-05-01 11:47:00,
2013-05-01 08:02:00,60.5,57.0,30.16,East,82,2.0,5.0,87,0.00,,,0.00,weatherlink.com 1.10,2013-05-01 12:02:00,
2013-05-01 08:17:00,60.5,56.0,30.16,ESE,114,6.0,8.0,85,0.00,,,0.00,weatherlink.com 1.10,2013-05-01 12:17:00,
2013-05-01 08:32:00,60.6,56.0,30.16,South,173,1.0,9.0,85,0.00,,,0.00,weatherlink.com 1.10,2013-05-01 12:32:00,
2013-05-01 08:47:00,60.5,56.0,30.16,SE,138,3.0,9.0,85,0.00,,,0.00,weatherlink.com 1.10,2013-05-01 12:47:00,
2013-05-01 09:02:00,60.8,56.0,30.17,SSW,204,1.0,8.0,85,0.00,,,0.00,weatherlink.com 1.10,2013-05-01 13:02:00,
2013-05-01 09:17:00,60.8,56.0,30.17,WSW,250,2.0,6.0,85,0.00,,,0.00,weatherlink.com 1.10,2013-05-01 13:17:00,
2013-05-01 09:32:00,60.7,56.0,30.18,SE,131,1.0,7.0,84,0.00,,,0.00,weatherlink.com 1.10,2013-05-01 13:32:00,
2013-05-01 09:47:00,61.0,56.0,30.18,SSW,198,1.0,2.0,84,0.00,,,0.00,weatherlink.com 1.10,2013-05-01 13:47:00,
2013-05-01 10:02:00,60.9,56.0,30.19,ESE,110,2.0,4.0,84,0.00,,,0.00,weatherlink.com 1.10,2013-05-01 14:02:00,
2013-05-01 10:17:00,61.0,56.0,30.18,East,97,0.0,5.0,84,0.00,,,0.00,weatherlink.com 1.10,2013-05-01 14:17:00,
2013-05-01 10:32:00,61.2,56.0,30.18,ESE,120,2.0,5.0,83,0.00,,,0.00,weatherlink.com 1.10,2013-05-01 14:32:00,
2013-05-01 10:47:00,61.7,56.0,30.18,East,84,3.0,5.0,82,0.00,,,0.00,weatherlink.com 1.10,2013-05-01 14:47:00,
2013-05-01 11:02:00,62.2,56.0,30.18,SE,135,1.0,8.0,80,0.00,,,0.00,weatherlink.com 1.10,2013-05-01 15:02:00,
2013-05-01 11:17:00,62.5,56.0,30.18,East,94,2.0,11.0,78,0.00,,,0.00,weatherlink.com 1.10,2013-05-01 15:17:00,
2013-05-01 11:32:00,62.8,56.0,30.18,ESE,106,1.0,7.0,79,0.00,,,0.00,weatherlink.com 1.10,2013-05-01 15:32:00,
2013-05-01 11:47:00,62.6,56.0,30.19,NNE,25,0.0,7.0,79,0.00,,,0.00,weatherlink.com 1.10,2013-05-01 15:47:00,
2013-05-01 12:03:00,63.7,57.0,30.19,ESE,117,2.0,8.0,78,0.00,,,0.00,weatherlink.com 1.10,2013-05-01 16:03:00,
2013-05-01 12:18:00,63.9,57.0,30.18,SW,225,0.0,5.0,77,0.00,,,0.00,weatherlink.com 1.10,2013-05-01 16:18:00,
2013-05-01 12:33:00,64.6,57.0,30.18,WNW,285,3.0,11.0,76,0.00,,,0.00,weatherlink.com 1.10,2013-05-01 16:33:00,
2013-05-01 12:48:00,64.6,57.0,30.18,South,191,5.0,8.0,76,0.00,,,0.00,weatherlink.com 1.10,2013-05-01 16:48:00,
2013-05-01 13:03:00,64.5,56.0,30.18,South,173,6.0,9.0,74,0.00,,,0.00,weatherlink.com 1.10,2013-05-01 17:03:00,
2013-05-01 13:18:00,64.9,57.0,30.18,ESE,120,2.0,9.0,75,0.00,,,0.00,weatherlink.com 1.10,2013-05-01 17:18:00,
2013-05-01 13:33:00,67.2,57.0,30.18,East,94,0.0,7.0,71,0.00,,,0.00,weatherlink.com 1.10,2013-05-01 17:33:00,
2013-05-01 13:48:00,67.9,56.0,30.18,NE,40,9.0,12.0,67,0.00,,,0.00,weatherlink.com 1.10,2013-05-01 17:48:00,
2013-05-01 14:03:00,68.4,57.0,30.18,SE,142,1.0,9.0,67,0.00,,,0.00,weatherlink.com 1.10,2013-05-01 18:03:00,
2013-05-01 14:18:00,68.4,57.0,30.18,East,96,1.0,6.0,67,0.00,,,0.00,weatherlink.com 1.10,2013-05-01 18:18:00,
2013-05-01 14:33:00,67.7,56.0,30.18,NE,43,1.0,6.0,67,0.00,,,0.00,weatherlink.com 1.10,2013-05-01 18:33:00,
2013-05-01 14:48:00,67.6,57.0,30.17,SSE,162,2.0,7.0,68,0.00,,,0.00,weatherlink.com 1.10,2013-05-01 18:48:00,
2013-05-01 15:03:00,68.1,57.0,30.16,ESE,112,0.0,7.0,68,0.00,,,0.00,weatherlink.com 1.10,2013-05-01 19:03:00,
2013-05-01 15:18:00,68.3,57.0,30.15,ESE,106,0.0,12.0,68,0.00,,,0.00,weatherlink.com 1.10,2013-05-01 19:18:00,
2013-05-01 15:33:00,69.0,57.0,30.14,SSE,158,3.0,8.0,66,0.00,,,0.00,weatherlink.com 1.10,2013-05-01 19:33:00,
2013-05-01 15:48:00,69.4,57.0,30.14,ESE,120,6.0,10.0,65,0.00,,,0.00,weatherlink.com 1.10,2013-05-01 19:48:00,
2013-05-01 16:03:00,69.4,56.0,30.13,North,4,4.0,8.0,63,0.00,,,0.00,weatherlink.com 1.10,2013-05-01 20:03:00,
2013-05-01 16:33:00,69.3,56.0,30.12,West,281,1.0,8.0,63,0.00,,,0.00,weatherlink.com 1.10,2013-05-01 20:33:00,
2013-05-01 16:48:00,68.9,56.0,30.12,NE,49,1.0,9.0,64,0.00,,,0.00,weatherlink.com 1.10,2013-05-01 20:48:00,
2013-05-01 17:03:00,68.7,57.0,30.13,SE,127,1.0,7.0,66,0.00,,,0.00,weatherlink.com 1.10,2013-05-01 21:03:00,
2013-05-01 17:18:00,68.3,56.0,30.13,SE,142,1.0,5.0,65,0.00,,,0.00,weatherlink.com 1.10,2013-05-01 21:18:00,
2013-05-01 17:34:00,67.5,55.0,30.12,SE,125,2.0,11.0,65,0.00,,,0.00,weatherlink.com 1.10,2013-05-01 21:34:00,
2013-05-01 17:48:00,67.1,56.0,30.12,ESE,103,1.0,6.0,67,0.00,,,0.00,weatherlink.com 1.10,2013-05-01 21:48:00,
2013-05-01 18:03:00,66.8,55.0,30.12,SE,126,2.0,7.0,67,0.00,,,0.00,weatherlink.com 1.10,2013-05-01 22:03:00,
2013-05-01 18:18:00,66.2,55.0,30.12,ESE,122,1.0,6.0,67,0.00,,,0.00,weatherlink.com 1.10,2013-05-01 22:18:00,
2013-05-01 18:33:00,65.5,55.0,30.13,SSE,150,0.0,4.0,68,0.00,,,0.00,weatherlink.com 1.10,2013-05-01 22:33:00,
2013-05-01 18:48:00,65.1,54.0,30.13,SSE,150,2.0,9.0,68,0.00,,,0.00,weatherlink.com 1.10,2013-05-01 22:48:00,
2013-05-01 19:03:00,64.9,54.0,30.13,ESE,115,3.0,5.0,69,0.00,,,0.00,weatherlink.com 1.10,2013-05-01 23:03:00,
2013-05-01 19:18:00,64.5,54.0,30.13,WNW,294,0.0,9.0,69,0.00,,,0.00,weatherlink.com 1.10,2013-05-01 23:18:00,
2013-05-01 19:33:00,64.3,54.0,30.13,SSE,156,4.0,9.0,69,0.00,,,0.00,weatherlink.com 1.10,2013-05-01 23:33:00,
2013-05-01 19:48:00,63.9,54.0,30.13,SW,225,2.0,8.0,70,0.00,,,0.00,weatherlink.com 1.10,2013-05-01 23:48:00,
2013-05-01 20:03:00,63.7,54.0,30.14,East,80,1.0,8.0,71,0.00,,,0.00,weatherlink.com 1.10,2013-05-02 00:03:00,
2013-05-01 20:18:00,63.3,54.0,30.14,East,94,1.0,9.0,72,0.00,,,0.00,weatherlink.com 1.10,2013-05-02 00:18:00,
2013-05-01 20:33:00,63.1,55.0,30.15,East,100,1.0,5.0,74,0.00,,,0.00,weatherlink.com 1.10,2013-05-02 00:33:00,
2013-05-01 20:48:00,62.7,55.0,30.16,SSE,156,0.0,6.0,75,0.00,,,0.00,weatherlink.com 1.10,2013-05-02 00:48:00,
2013-05-01 21:03:00,62.4,55.0,30.16,East,98,2.0,3.0,76,0.00,,,0.00,weatherlink.com 1.10,2013-05-02 01:03:00,
2013-05-01 21:18:00,62.1,55.0,30.17,East,98,3.0,8.0,77,0.00,,,0.00,weatherlink.com 1.10,2013-05-02 01:18:00,
2013-05-01 21:33:00,61.9,55.0,30.18,SE,145,0.0,5.0,78,0.00,,,0.00,weatherlink.com 1.10,2013-05-02 01:33:00,
2013-05-01 21:48:00,61.7,55.0,30.18,ESE,117,0.0,7.0,78,0.00,,,0.00,weatherlink.com 1.10,2013-05-02 01:48:00,
2013-05-01 22:03:00,61.6,55.0,30.19,SE,125,10.0,10.0,79,0.00,,,0.00,weatherlink.com 1.10,2013-05-02 02:03:00,
2013-05-01 22:18:00,61.4,55.0,30.19,South,188,0.0,9.0,79,0.00,,,0.00,weatherlink.com 1.10,2013-05-02 02:18:00,
2013-05-01 22:33:00,61.3,55.0,30.19,SSE,167,2.0,4.0,80,0.00,,,0.00,weatherlink.com 1.10,2013-05-02 02:33:00,
2013-05-01 22:48:00,61.1,55.0,30.20,ESE,120,2.0,7.0,80,0.00,,,0.00,weatherlink.com 1.10,2013-05-02 02:48:00,
2013-05-01 23:03:00,61.0,55.0,30.19,ESE,105,1.0,9.0,80,0.00,,,0.00,weatherlink.com 1.10,2013-05-02 03:03:00,
2013-05-01 23:18:00,60.9,55.0,30.20,NNE,33,2.0,6.0,81,0.00,,,0.00,weatherlink.com 1.10,2013-05-02 03:18:00,
2013-05-01 23:33:00,60.7,55.0,30.19,ESE,108,1.0,4.0,82,0.00,,,0.00,weatherlink.com 1.10,2013-05-02 03:33:00,
2013-05-01 23:48:00,60.5,55.0,30.19,ENE,78,10.0,10.0,82,0.00,,,0.00,weatherlink.com 1.10,2013-05-02 03:48:00,